FW6665 Weather Reports


Display with metric or nautical units.
time (UTC)temp
F
wind
direction
speed
MPH
gust
MPH
rain 1hr
in
rain 24hr
in
rain mn
in
humidity
%
barometer
mb
20260506202205 52 272 0.0 4.0 0.00 0.00 0.00 70 1011.8
20260506201704 52 272 0.0 4.0 0.00 0.00 0.00 70 1011.8
20260506201203 53 271 1.0 4.0 0.00 0.00 0.00 70 1011.6
20260506200705 53 252 1.0 3.0 0.00 0.00 0.00 69 1011.7
20260506200204 53 341 1.0 3.0 0.00 0.00 0.00 69 1011.4
20260506195705 53 341 1.0 3.0 0.00 0.00 0.00 69 1011.5
20260506195205 53 353 1.0 3.0 0.00 0.00 0.00 69 1011.5
20260506194703 53 354 1.0 1.0 0.00 0.00 0.00 69 1011.4
20260506193204 53 7 0.0 3.0 0.00 0.00 0.00 68 1011.2
20260506192705 53 319 0.0 5.0 0.00 0.00 0.00 68 1011.1
20260506192204 53 276 0.0 5.0 0.00 0.00 0.00 67 1011.3
20260506191704 53 276 0.0 3.0 0.00 0.00 0.00 67 1011.2
20260506191209 53 262 0.0 3.0 0.00 0.00 0.00 67 1011.1
20260506190708 53 262 0.0 3.0 0.00 0.00 0.00 67 1011.1
20260506185204 53 262 0.0 2.0 0.00 0.00 0.00 67 1011.0
20260506184709 53 262 0.0 2.0 0.00 0.00 0.00 67 1011.0
20260506184207 53 262 0.0 2.0 0.00 0.00 0.00 67 1010.8
20260506183704 53 262 0.0 2.0 0.00 0.00 0.00 67 1010.8
20260506182706 53 262 0.0 2.0 0.00 0.00 0.00 67 1010.7
20260506182205 53 262 0.0 3.0 0.00 0.00 0.00 67 1010.7
20260506180204 53 248 0.0 2.0 0.00 0.00 0.00 67 1010.7
20260506175705 53 248 0.0 2.0 0.00 0.00 0.00 67 1010.6
20260506175204 53 248 0.0 1.0 0.00 0.00 0.00 68 1010.6
20260506174705 53 248 0.0 2.0 0.00 0.00 0.00 67 1010.5
20260506174204 53 248 0.0 2.0 0.00 0.00 0.00 68 1010.5
20260506173704 53 248 0.0 2.0 0.00 0.00 0.00 67 1010.4
20260506173209 53 248 0.0 2.0 0.00 0.00 0.00 67 1010.4
20260506172703 53 248 0.0 3.0 0.00 0.00 0.00 67 1010.4
20260506172205 54 248 0.0 3.0 0.00 0.00 0.00 67 1010.4
20260506171704 54 248 0.0 3.0 0.00 0.00 0.00 67 1010.4
20260506171208 54 247 0.0 2.0 0.00 0.00 0.00 67 1010.3
20260506170704 54 247 0.0 2.0 0.00 0.00 0.00 67 1010.3
20260506165705 54 245 0.0 1.0 0.00 0.00 0.00 67 1010.3
20260506165204 54 245 0.0 1.0 0.00 0.00 0.00 67 1010.3
20260506164705 54 245 0.0 2.0 0.00 0.00 0.00 66 1010.3
20260506164204 54 245 0.0 2.0 0.00 0.00 0.00 65 1010.2
20260506163706 54 245 0.0 2.0 0.00 0.00 0.00 64 1010.3
20260506163208 54 245 0.0 5.0 0.00 0.00 0.00 64 1010.3
20260506161704 54 245 0.0 2.0 0.00 0.00 0.00 63 1010.3
20260506161205 54 295 0.0 3.0 0.00 0.00 0.00 64 1010.3
20260506160704 55 296 1.0 4.0 0.00 0.00 0.00 63 1010.3
20260506160204 55 295 1.0 4.0 0.00 0.00 0.00 63 1010.4
20260506155704 55 295 1.0 4.0 0.00 0.00 0.00 63 1010.3
20260506155204 55 303 1.0 4.0 0.00 0.00 0.00 62 1010.4
20260506154704 55 275 0.0 5.0 0.00 0.00 0.00 63 1010.3
20260506154204 56 275 1.0 5.0 0.00 0.00 0.00 62 1010.4
20260506153705 56 262 0.0 5.0 0.00 0.00 0.00 63 1010.3
20260506153204 56 259 1.0 6.0 0.00 0.00 0.00 63 1010.3
20260506152204 56 245 1.0 6.0 0.00 0.00 0.00 63 1010.3
20260506151704 56 250 1.0 6.0 0.00 0.00 0.00 65 1010.3
20260506150704 56 240 2.0 5.0 0.00 0.00 0.00 65 1010.3
20260506150204 55 276 1.0 6.0 0.00 0.00 0.00 66 1010.3
20260506145705 55 275 1.0 6.0 0.00 0.00 0.00 65 1010.3
20260506145204 55 266 1.0 6.0 0.00 0.00 0.00 66 1010.4
20260506144205 55 259 1.0 5.0 0.00 0.00 0.00 67 1010.3
20260506143705 55 257 2.0 6.0 0.00 0.00 0.00 66 1010.3
20260506143204 55 258 1.0 6.0 0.00 0.00 0.00 67 1010.4
20260506142205 56 282 1.0 5.0 0.00 0.00 0.00 66 1010.4
20260506141704 56 278 1.0 5.0 0.00 0.00 0.00 66 1010.3
20260506141204 57 252 3.0 5.0 0.00 0.00 0.00 64 1010.3
20260506140704 57 266 1.0 5.0 0.00 0.00 0.00 65 1010.3
20260506140205 57 265 2.0 5.0 0.00 0.00 0.00 67 1010.4
20260506135704 56 258 1.0 5.0 0.00 0.00 0.00 69 1010.4
20260506135205 55 271 1.0 5.0 0.00 0.00 0.00 68 1010.4
20260506134704 55 268 1.0 4.0 0.00 0.00 0.00 67 1010.5
20260506134205 55 300 2.0 4.0 0.00 0.00 0.00 66 1010.4
20260506133204 55 307 1.0 5.0 0.00 0.00 0.00 66 1010.3
20260506132705 55 316 0.0 5.0 0.00 0.00 0.00 67 1010.4
20260506132204 55 319 1.0 4.0 0.00 0.00 0.00 67 1010.5
20260506131704 55 313 1.0 4.0 0.00 0.00 0.00 67 1010.5
20260506130706 55 288 1.0 3.0 0.00 0.00 0.00 66 1010.5
20260506130204 55 285 0.0 3.0 0.00 0.00 0.00 66 1010.4
20260506125703 55 285 0.0 5.0 0.00 0.00 0.00 65 1010.5
20260506125204 55 286 1.0 6.0 0.00 0.00 0.00 64 1010.5
20260506124704 55 250 1.0 6.0 0.00 0.00 0.00 64 1010.5
20260506124205 56 268 1.0 6.0 0.00 0.00 0.00 63 1010.4
20260506123705 56 303 0.0 6.0 0.00 0.00 0.00 63 1010.3
20260506123205 56 283 1.0 6.0 0.00 0.00 0.00 63 1010.3
20260506122704 56 288 1.0 7.0 0.00 0.00 0.00 63 1010.3
20260506122205 56 254 1.0 7.0 0.00 0.00 0.00 64 1010.2
20260506120704 56 282 1.0 6.0 0.00 0.00 0.00 64 1010.4
20260506120206 55 345 1.0 6.0 0.00 0.00 0.00 65 1010.3
20260506115704 55 0 1.0 6.0 0.00 0.00 0.00 64 1010.4
20260506115204 55 271 2.0 5.0 0.00 0.00 0.00 64 1010.4
20260506114705 55 272 2.0 9.0 0.00 0.00 0.00 64 1010.4
20260506114206 55 281 0.0 9.0 0.00 0.00 0.00 63 1010.4
20260506113703 55 245 1.0 9.0 0.00 0.00 0.00 62 1010.4
20260506113204 56 317 3.0 7.0 0.00 0.00 0.00 61 1010.4
20260506112704 56 320 2.0 7.0 0.00 0.00 0.00 63 1010.4
20260506112205 56 262 2.0 7.0 0.00 0.00 0.00 61 1010.4
20260506111705 55 272 2.0 7.0 0.00 0.00 0.00 61 1010.4
20260506110704 56 285 2.0 5.0 0.00 0.00 0.00 61 1010.4
20260506110204 56 299 1.0 7.0 0.00 0.00 0.00 61 1010.4
20260506105703 56 305 1.0 7.0 0.00 0.00 0.00 59 1010.5
20260506105205 56 274 2.0 5.0 0.00 0.00 0.00 59 1010.4
20260506104704 57 302 1.0 5.0 0.00 0.00 0.00 59 1010.4
20260506104204 56 319 2.0 10.0 0.00 0.00 0.00 60 1010.5
20260506103704 55 264 1.0 10.0 0.00 0.00 0.00 63 1010.4
20260506103204 55 266 1.0 10.0 0.00 0.00 0.00 63 1010.4
20260506102705 55 262 2.0 7.0 0.00 0.00 0.00 65 1010.4
20260506101204 53 286 1.0 11.0 0.00 0.00 0.00 65 1010.4
20260506100703 53 300 1.0 11.0 0.00 0.00 0.00 65 1010.5
20260506100204 53 278 2.0 7.0 0.00 0.00 0.00 65 1010.6
20260506095707 53 250 3.0 7.0 0.00 0.00 0.00 64 1010.5
20260506095204 53 262 0.0 7.0 0.00 0.00 0.00 65 1010.5
20260506094704 53 243 2.0 6.0 0.00 0.00 0.00 65 1010.6
20260506094204 53 286 2.0 7.0 0.00 0.00 0.00 64 1010.6
20260506092705 55 0 3.0 12.0 0.00 0.00 0.00 61 1010.5
20260506092204 55 266 2.0 9.0 0.00 0.00 0.00 62 1010.4
20260506091704 55 0 2.0 10.0 0.00 0.00 0.00 64 1010.5
20260506091204 54 299 2.0 10.0 0.00 0.00 0.00 64 1010.5
20260506090704 54 244 3.0 10.0 0.00 0.00 0.00 64 1010.4
20260506090205 54 261 3.0 6.0 0.00 0.00 0.00 65 1010.4
20260506085705 54 306 1.0 10.0 0.00 0.00 0.00 67 1010.3
20260506084704 53 313 1.0 10.0 0.00 0.00 0.00 68 1010.2
20260506084204 53 285 2.0 7.0 0.00 0.00 0.00 68 1010.3
20260506083704 52 0 2.0 7.0 0.00 0.00 0.00 69 1010.3
20260506082206 53 326 1.0 9.0 0.00 0.00 0.00 71 1010.3
20260506081704 53 306 1.0 9.0 0.00 0.00 0.00 72 1010.2
20260506081204 52 39 2.0 9.0 0.00 0.00 0.00 73 1010.2
20260506080204 51 285 2.0 9.0 0.00 0.00 0.00 73 1010.3
20260506072704 50 279 1.0 6.0 0.00 0.00 0.00 79 1010.3
20260506072204 49 264 0.0 6.0 0.00 0.00 0.00 79 1010.3
20260506071705 49 262 1.0 6.0 0.00 0.00 0.00 79 1010.3
20260506071205 49 264 1.0 5.0 0.00 0.00 0.00 80 1010.3
20260506070204 48 250 1.0 6.0 0.00 0.00 0.00 80 1010.1
20260506062205 47 289 2.0 9.0 0.00 0.00 0.00 80 1010.2
20260506061704 47 216 1.0 5.0 0.00 0.00 0.00 81 1010.2
20260506061205 47 243 1.0 6.0 0.00 0.00 0.00 81 1010.2
20260506060705 47 243 0.0 7.0 0.00 0.00 0.00 80 1010.2
20260506060204 47 240 1.0 7.0 0.00 0.00 0.00 80 1010.2
20260506051205 47 285 1.0 4.0 0.00 0.00 0.00 81 1009.9
20260506050205 47 281 0.0 5.0 0.00 0.00 0.00 82 1009.8
20260506044704 47 276 0.0 5.0 0.00 0.00 0.00 82 1009.9
20260506043709 47 289 1.0 6.0 0.00 0.00 0.00 82 1009.8
20260506042709 47 281 0.0 5.0 0.00 0.00 0.00 81 1009.8
20260506042205 47 281 0.0 5.0 0.00 0.00 0.00 81 1009.8
20260506041704 48 281 0.0 3.0 0.00 0.00 0.00 80 1009.7
20260506040204 48 278 0.0 4.0 0.00 0.00 0.00 80 1009.7
20260506035705 48 278 1.0 3.0 0.00 0.00 0.00 80 1009.6
20260506035206 48 274 0.0 4.0 0.00 0.00 0.00 80 1009.7
20260506034705 48 274 1.0 4.0 0.00 0.00 0.00 80 1009.6
20260506034205 48 272 0.0 4.0 0.00 0.00 0.00 80 1009.7
20260506033706 48 257 2.0 2.0 0.00 0.00 0.00 80 1009.7
20260506033204 48 61 1.0 2.0 0.00 0.00 0.00 80 1009.7
20260506032205 48 58 0.0 4.0 0.00 0.00 0.00 79 1009.7
20260506031704 48 55 0.0 4.0 0.00 0.00 0.00 79 1009.7
20260506031204 48 56 0.0 4.0 0.00 0.00 0.00 79 1009.7
20260506025703 49 292 0.0 4.0 0.00 0.00 0.00 80 1009.8
20260506025206 49 292 1.0 3.0 0.00 0.00 0.00 80 1009.9
20260506024705 49 309 1.0 3.0 0.00 0.00 0.00 80 1009.9
20260506024204 49 307 0.0 3.0 0.00 0.00 0.00 81 1009.9
20260506023704 49 307 0.0 3.0 0.00 0.00 0.00 81 1010.0
20260506023211 50 305 1.0 3.0 0.00 0.00 0.00 81 1010.1
20260506022705 50 299 0.0 3.0 0.00 0.00 0.00 81 1010.1
20260506022204 50 299 0.0 3.0 0.00 0.00 0.00 81 1010.0
20260506021705 50 303 0.0 3.0 0.00 0.00 0.00 81 1010.1
20260506021205 50 303 1.0 3.0 0.00 0.00 0.00 81 1010.1
20260506020704 50 303 0.0 3.0 0.00 0.00 0.00 81 1010.1
20260506015705 50 303 0.0 2.0 0.00 0.00 0.00 81 1010.1
20260506015205 50 302 0.0 2.0 0.00 0.00 0.00 81 1010.2
20260506014704 50 302 0.0 2.0 0.00 0.00 0.00 81 1010.2
20260506014204 50 302 0.0 1.0 0.00 0.00 0.00 81 1010.2
20260506013704 50 302 0.0 3.0 0.00 0.00 0.00 81 1010.2
20260506013205 50 302 0.0 3.0 0.00 0.00 0.00 81 1010.3
20260506012704 50 302 0.0 3.0 0.00 0.00 0.00 80 1010.3
20260506012204 50 302 1.0 2.0 0.00 0.00 0.00 80 1010.2
20260506011705 50 299 0.0 2.0 0.00 0.00 0.00 80 1010.2
20260506011204 50 299 0.0 2.0 0.00 0.00 0.00 80 1010.2
20260506010205 50 299 0.0 2.0 0.00 0.00 0.00 80 1010.2
20260506005704 50 299 0.0 2.0 0.00 0.00 0.00 80 1010.2
20260506005204 50 299 0.0 2.0 0.00 0.00 0.00 80 1010.2
20260506004704 50 299 0.0 2.0 0.00 0.00 0.00 80 1010.4
20260506004204 50 299 0.0 2.0 0.00 0.00 0.00 80 1010.3
20260506003704 50 299 0.0 2.0 0.00 0.00 0.00 79 1010.4
20260506003204 50 299 0.0 4.0 0.00 0.00 0.00 79 1010.4
20260506002705 50 299 0.0 4.0 0.00 0.00 0.00 79 1010.4
20260506002205 51 300 1.0 4.0 0.00 0.00 0.00 79 1010.5
20260506001705 51 299 1.0 2.0 0.00 0.00 0.00 79 1010.4
20260506001204 51 317 0.0 4.0 0.00 0.00 0.00 80 1010.4
20260506000707 51 316 0.0 4.0 0.00 0.00 0.00 80 1010.4
20260506000205 51 316 1.0 4.0 0.00 0.00 0.00 79 1010.5
20260505235704 51 317 1.0 3.0 0.00 0.00 0.00 79 1010.5
20260505235205 51 317 0.0 4.0 0.00 0.00 0.00 79 1010.5
20260505234708 51 317 0.0 4.0 0.00 0.00 0.00 79 1010.3
20260505234205 51 320 0.0 5.0 0.00 0.00 0.00 79 1010.3
20260505233705 51 320 0.0 5.0 0.00 0.00 0.00 79 1010.4
20260505233214 51 320 0.0 5.0 0.00 0.00 0.00 79 1010.4
20260505232704 51 306 1.0 3.0 0.00 0.00 0.00 79 1010.4
20260505232206 51 312 1.0 3.0 0.00 0.00 0.00 79 1010.4
20260505231705 52 313 0.0 3.0 0.00 0.00 0.00 79 1010.5
20260505230704 52 313 0.0 3.0 0.00 0.00 0.00 79 1010.5
20260505230209 52 313 0.0 4.0 0.00 0.00 0.00 80 1010.4
20260505225703 52 313 0.0 4.0 0.00 0.00 0.00 80 1010.4
20260505225205 52 313 1.0 2.0 0.00 0.00 0.00 80 1010.4
20260505224704 52 316 0.0 5.0 0.00 0.00 0.00 80 1010.4
20260505224205 52 316 0.0 5.0 0.00 0.00 0.00 80 1010.4
20260505222704 52 110 1.0 3.0 0.00 0.00 0.00 82 1010.5
20260505222204 52 135 1.0 2.0 0.00 0.00 0.00 82 1010.3
20260505221204 53 116 0.0 1.0 0.00 0.00 0.00 82 1010.4
20260505220704 53 116 0.0 3.0 0.00 0.00 0.00 81 1010.4
20260505220205 53 116 0.0 3.0 0.00 0.00 0.00 81 1010.4
20260505215716 53 116 0.0 3.0 0.00 0.00 0.00 80 1010.3
20260505214704 54 116 0.0 2.0 0.00 0.00 0.00 78 1010.3
20260505214214 54 121 1.0 1.0 0.00 0.00 0.00 76 1010.3
20260505213705 53 111 0.0 1.0 0.00 0.00 0.00 74 1010.3
20260505213204 53 111 0.0 1.0 0.00 0.00 0.00 73 1010.3
20260505212704 54 111 0.0 1.0 0.00 0.00 0.00 73 1010.2
20260505212236 54 111 0.0 1.0 0.00 0.00 0.00 73 1010.2
20260505211704 54 111 0.0 1.0 0.00 0.00 0.00 72 1010.1
20260505211204 54 111 0.0 1.0 0.00 0.00 0.00 72 1010.1
20260505210706 54 111 0.0 2.0 0.00 0.00 0.00 72 1010.2
20260505205704 54 111 0.0 2.0 0.00 0.00 0.00 71 1010.1
20260505205204 54 111 0.0 2.0 0.00 0.00 0.00 71 1010.2
20260505204709 54 111 0.0 2.0 0.00 0.00 0.00 70 1010.3
20260505204205 54 111 0.0 1.0 0.00 0.00 0.00 71 1010.1
20260505203704 54 111 0.0 2.0 0.00 0.00 0.00 71 1010.1
20260505203204 55 111 0.0 2.0 0.00 0.00 0.00 71 1010.0
20260505202704 55 111 0.0 2.0 0.00 0.00 0.00 72 1010.0